FO-29
1 24278U 96046B 16259.38367665 -.00000009 00000-0 29335-4 0 9991
2 24278 98.5821 172.7883 0349955 329.2640 28.8412 13.53070625991719
RS-22
1 27939U 03042A 16259.83277833 .00000187 00000-0 42074-4 0 9990
2 27939 97.9018 48.0806 0013465 23.1142 86.4134 14.66450678693106
AO-73
1 39444U 13066AE 16259.14836744 .00000548 00000-0 74873-4 0 9990
2 39444 97.6720 308.8474 0060314 87.0576 273.7538 14.81166943150899
EO-79
1 40025U 14033R 16259.70201576 .00000571 00000-0 68028-4 0 9994
2 40025 97.9202 165.1046 0013784 123.0676 237.1866 14.88113728121665
XW-2A
1 40903U 15049E 16259.81261158 .00004024 00000-0 11300-3 0 9998
2 40903 97.4432 276.0844 0016155 164.3904 195.7842 15.37022926 55477
XW-2C
1 40906U 15049H 16259.86662168 .00001541 00000-0 88588-4 0 9996
2 40906 97.4551 265.0094 0017344 84.8590 275.4621 15.13839937 54725
LILACSAT-2
1 40908U 15049K 16259.81090089 .00000907 00000-0 55290-4 0 9999
2 40908 97.4617 264.7814 0018075 79.8356 280.4913 15.12696586 54687
UO-11
1 14781U 84021B 16258.78582548 .00000187 00000-0 29505-4 0 9996
2 14781 97.7401 308.0020 0009172 30.7548 329.4202 14.82791201749535
LO-19
1 20442U 90005G 16259.42844877 .00000004 00000-0 17655-4 0 9995
2 20442 98.5470 193.1303 0010711 236.9893 123.0262 14.32829169392271
AO-27
1 22825U 93061C 16258.85860294 .00000013 00000-0 22635-4 0 9998
2 22825 98.7691 215.7025 0009432 59.4026 300.8085 14.29967690198057
IO-26
1 22826U 93061D 16259.44230573 .00000022 00000-0 25886-4 0 9997
2 22826 98.7635 216.4042 0009848 49.4149 310.7889 14.30293678198309
GO-32
1 25397U 98043D 16259.80755856 -.00000011 00000-0 13838-4 0 9997
2 25397 98.5739 202.4280 0002434 82.0706 278.0749 14.23602365944751
NO-44
1 26931U 01043C 16258.90589196 -.00000011 00000-0 27561-4 0 9996
2 26931 067.0501 081.4387 0005394 264.5237 095.5249 14.30423750780900
SO-50
1 27607U 02058C 16258.92136580 .00000091 00000-0 33915-4 0 9998
2 27607 064.5540 246.6717 0058072 196.8446 163.0730 14.75207894738376
CO-55
1 27844U 03031E 16259.23858204 .00000092 00000-0 61585-4 0 9997
2 27844 98.6936 266.2353 0010800 65.5996 294.6307 14.21975950685243
CO-57
1 27848U 03031J 16259.30539635 .00000078 00000-0 55406-4 0 9992
2 27848 98.7033 266.4364 0010760 73.2720 286.9637 14.21599370685143
CO-65
1 32785U 08021C 16259.77252786 .00000456 00000-0 55750-4 0 9994
2 32785 97.5960 290.1890 0013189 4.2597 355.8730 14.87657707454096
PRISM
1 33493U 09002B 16259.89356184 .00000604 00000-0 60824-4 0 9994
2 33493 98.2043 124.2098 0014463 269.8739 90.0843 14.95124060414788
TISAT-1
1 36799U 10035E 16259.85276685 .00001015 00000-0 11125-3 0 9993
2 36799 98.0379 11.5752 0013414 143.6027 216.6104 14.89968716334929
ALMASAT-1
1 38078U 12006B 16259.22842737 .00033246 37629-5 41849-3 0 9992
2 38078 69.4462 144.8571 0366472 331.7225 26.4458 15.08238039243131
DUCHIFAT-1
1 40021U 14033M 16259.71181454 .00000878 00000-0 98128-4 0 9997
2 40021 97.9236 166.4166 0014378 121.0037 239.2594 14.89454675121733
NANOSATCBR1
1 40024U 14033Q 16259.72915714 .00000711 00000-0 81812-4 0 9993
2 40024 97.9209 165.7176 0013660 121.0252 239.2307 14.88844198121702
DTUSAT-2
1 40030U 14033W 16259.70573721 .00000577 00000-0 69293-4 0 9995
2 40030 97.9177 164.4824 0013341 117.4228 242.8347 14.87747578121636
ANTELSAT
1 40034U 14033AA 16259.61860060 .00000414 00000-0 69669-4 0 9991
2 40034 97.8911 145.5082 0060612 94.9341 265.8794 14.73465498120496
MET-2/21
1 22782U 93055A 16259.48719183 .00000021 00000-0 52434-5 0 9993
2 22782 82.5469 241.5651 0023726 119.6916 353.2126 13.83790730163704
NOAA-15
1 25338U 98030A 16259.61259551 .00000018 00000-0 75455-5 0 9998
2 25338 98.7855 263.9534 0009599 286.1829 73.8778 14.25752100954190
NOAA-18
1 28654U 05018A 16259.60344900 .00000208 00000-0 11309-3 0 9995
2 28654 99.1983 268.8878 0015182 119.4908 240.8259 14.12304380583497
NOAA-19
1 33591U 09005A 16259.57080501 .00000225 00000-0 12265-3 0 9992
2 33591 99.0490 217.1263 0013706 328.5400 31.5420 14.12106804392382
HUBBLE
1 20580U 90037B 16259.75812812 .00000922 00000-0 46455-4 0 9992
2 20580 28.4706 20.5571 0002992 100.3543 48.4328 15.08494825248809
ISS
1 25544U 98067A 16259.89704861 .00005628 00000-0 93086-4 0 9997
2 25544 51.6466 325.4779 0006068 322.5354 11.2903 15.53853174 19098
CO-58
1 28895U 05043F 16259.15634489 .00000261 00000-0 59267-4 0 9999
2 28895 97.8395 68.6070 0015656 296.2117 63.7476 14.63252381580262
AAUSAT2
1 32788U 08021F 16259.10009089 .00000653 00000-0 67358-4 0 9996
2 32788 97.5955 298.9715 0011342 337.0862 22.9851 14.93391300454611
DO-64
1 32789U 08021G 16259.64495455 .00003530 00000-0 26181-3 0 9997
2 32789 97.5983 317.2674 0012152 317.8121 42.2169 15.03672628455598
CO-66
1 32791U 08021J 16259.05343540 .00000685 00000-0 76714-4 0 9998
2 32791 97.5963 292.9675 0013266 354.3681 5.7385 14.89891872454177
RS-30
1 32953U 08025A 16259.82966875 .00000011 00000-0 71228-5 0 9998
2 32953 82.5023 50.2718 0019422 162.5106 197.6647 12.43071586377336
JUGNU
1 37839U 11058B 16259.50968699 .00000340 00000-0 39537-4 0 9998
2 37839 19.9617 315.9379 0019109 36.2022 95.6588 14.12552765254816
SRMSAT
1 37841U 11058D 16259.67930667 .00000330 00000-0 36239-4 0 9998
2 37841 19.9728 350.9475 0011784 306.6517 202.8798 14.10550371254489
AO-71
1 37854U 11061E 16259.67314383 .00005863 00000-0 32618-3 0 9999
2 37854 101.6974 347.9433 0171901 166.8035 193.7758 15.02667163265682
HRBE
1 37855U 11061F 16259.69048462 .00004536 00000-0 24917-3 0 9993
2 37855 101.7107 345.9793 0185645 171.3801 189.0672 15.01591611265575
HORYU-2
1 38340U 12025D 16258.91619645 .00000447 00000-0 74367-4 0 9997
2 38340 098.3625 247.3888 0013081 087.3019 272.9686 14.75113156222295
RS-40
1 38735U 12041C 16259.80701262 .00000039 00000-0 21071-3 0 9999
2 38735 82.4759 135.2833 0015974 267.5146 92.4105 12.42573106187610
BEESAT-3
1 39134U 13015E 16259.54612406 .00004569 00000-0 23290-3 0 9994
2 39134 64.8716 32.0258 0014634 309.6933 50.3407 15.16425413187811
BEESAT-2
1 39136U 13015G 16259.49768839 .00003173 00000-0 17328-3 0 9997
2 39136 64.8719 39.2922 0014327 309.3917 50.6440 15.13995553187679
ZACUBE-1
1 39417U 13066B 16259.10426680 .00000450 00000-0 63535-4 0 9995
2 39417 97.6708 308.0929 0061122 89.3533 271.4683 14.80480074152079
TRITON-1
1 39427U 13066M 16259.51876229 .00000363 00000-0 66260-4 0 9990
2 39427 97.6612 287.0275 0115546 147.6732 213.1624 14.67257356150765
GOMX-1
1 39430U 13066Q 16259.73609910 .00000287 00000-0 61367-4 0 9997
2 39430 97.6675 273.7898 0151973 189.1516 170.6900 14.58667556149923
